Location: Jetmore Motorplex
(37.9889°N, 99.8876°W)
Time: 20:28:31
(UTC+00:00)

Centaur D-1AR AC-39 - Pass Details

Date: 17 February 2020
Orbit: 583 x 36199 km, 21.9° (Epoch: 29 March)

Event Time Altitude Azimuth Distance (km) Brightness Sun altitude
Rises 01:13:28 0° 261° (W) 19,328 11.4 -11.4°
Reaches altitude 10° 01:45:30 10° 256° (WSW) 10,360 9.0 -17.6°
Maximum altitude 02:06:21 30° 204° (SSW) 2,804 5.0 -21.8°
Enters shadow 02:10:39 16° 151° (SSE) 2,477 4.3 -22.6°
